Year,Month,Day,Hour,Minute,Value (Times are PST for temperature in C)
2007,04,15,00,00,5.70
2007,04,15,00,01,5.70
2007,04,15,00,02,5.70
2007,04,15,00,03,5.70
2007,04,15,00,04,5.70
2007,04,15,00,05,5.60
2007,04,15,00,06,5.60
2007,04,15,00,07,5.60
2007,04,15,00,08,5.60
2007,04,15,00,09,5.50
2007,04,15,00,10,5.50
2007,04,15,00,11,5.50
2007,04,15,00,12,5.50
2007,04,15,00,13,5.50
2007,04,15,00,14,5.50
2007,04,15,00,15,5.40
2007,04,15,00,16,5.40
2007,04,15,00,17,5.40
2007,04,15,00,18,5.30
2007,04,15,00,19,5.30
2007,04,15,00,20,5.30
2007,04,15,00,21,5.20
2007,04,15,00,22,5.20
2007,04,15,00,23,5.20
2007,04,15,00,24,5.10
2007,04,15,00,25,5.10
2007,04,15,00,26,5.10
2007,04,15,00,27,5.10
2007,04,15,00,28,5.10
2007,04,15,00,29,5.00
2007,04,15,00,30,4.90
2007,04,15,00,31,4.90
2007,04,15,00,32,4.90
2007,04,15,00,33,4.90
2007,04,15,00,34,4.90
2007,04,15,00,35,4.90
2007,04,15,00,36,4.90
2007,04,15,00,37,4.90
2007,04,15,00,38,4.90
2007,04,15,00,39,4.90
2007,04,15,00,40,4.90
2007,04,15,00,41,4.90
2007,04,15,00,42,4.90
2007,04,15,00,43,4.90
2007,04,15,00,44,4.90
2007,04,15,00,45,4.90
2007,04,15,00,46,4.90
2007,04,15,00,47,4.90
2007,04,15,00,48,4.90
2007,04,15,00,49,4.90
2007,04,15,00,50,5.10
2007,04,15,00,51,5.10
2007,04,15,00,52,5.10
2007,04,15,00,53,5.10
2007,04,15,00,54,5.10
2007,04,15,00,55,5.00
2007,04,15,00,56,4.90
2007,04,15,00,57,4.90
2007,04,15,00,58,4.90
2007,04,15,00,59,4.90
2007,04,15,01,00,4.90
2007,04,15,01,01,4.90
2007,04,15,01,02,4.80
2007,04,15,01,03,4.80
2007,04,15,01,04,4.80
2007,04,15,01,05,4.70
2007,04,15,01,06,4.70
2007,04,15,01,07,4.70
2007,04,15,01,08,4.60
2007,04,15,01,09,4.60
2007,04,15,01,10,4.60
2007,04,15,01,11,4.60
2007,04,15,01,12,4.60
2007,04,15,01,13,4.60
2007,04,15,01,14,4.60
2007,04,15,01,15,4.60
2007,04,15,01,16,4.70
2007,04,15,01,17,4.70
2007,04,15,01,18,4.70
2007,04,15,01,19,4.70
2007,04,15,01,20,4.70
2007,04,15,01,21,4.80
2007,04,15,01,22,4.80
2007,04,15,01,23,4.80
2007,04,15,01,24,4.80
2007,04,15,01,25,4.80
2007,04,15,01,26,4.80
2007,04,15,01,27,4.80
2007,04,15,01,28,4.80
2007,04,15,01,29,4.70
2007,04,15,01,30,4.70
2007,04,15,01,31,4.70
2007,04,15,01,32,4.70
2007,04,15,01,33,4.60
2007,04,15,01,34,4.60
2007,04,15,01,35,4.60
2007,04,15,01,36,4.60
2007,04,15,01,37,4.60
2007,04,15,01,38,4.60
2007,04,15,01,39,4.60
2007,04,15,01,40,4.60
2007,04,15,01,41,4.60
2007,04,15,01,42,4.60
2007,04,15,01,43,4.50
2007,04,15,01,44,4.50
2007,04,15,01,45,4.50
2007,04,15,01,46,4.50
2007,04,15,01,47,4.50
2007,04,15,01,48,4.40
2007,04,15,01,49,4.40
2007,04,15,01,50,4.40
2007,04,15,01,51,4.30
2007,04,15,01,52,4.30
2007,04,15,01,53,4.30
2007,04,15,01,54,4.20
2007,04,15,01,55,4.20
2007,04,15,01,56,4.20
2007,04,15,01,57,4.20
2007,04,15,01,58,4.20
2007,04,15,01,59,4.20
2007,04,15,02,00,4.20
2007,04,15,02,01,4.20
2007,04,15,02,02,4.20
2007,04,15,02,03,4.10
2007,04,15,02,04,4.10
2007,04,15,02,05,4.10
2007,04,15,02,06,4.10
2007,04,15,02,07,4.10
2007,04,15,02,08,4.10
2007,04,15,02,09,4.10
2007,04,15,02,10,4.10
2007,04,15,02,11,4.20
2007,04,15,02,12,4.20
2007,04,15,02,13,4.20
2007,04,15,02,14,4.20
2007,04,15,02,15,4.20
2007,04,15,02,16,4.20
2007,04,15,02,17,4.20
2007,04,15,02,18,4.20
2007,04,15,02,19,4.20
2007,04,15,02,20,4.20
2007,04,15,02,21,4.20
2007,04,15,02,22,4.20
2007,04,15,02,23,4.20
2007,04,15,02,24,4.10
2007,04,15,02,25,4.10
2007,04,15,02,26,4.10
2007,04,15,02,27,4.10
2007,04,15,02,28,4.10
2007,04,15,02,29,4.10
2007,04,15,02,30,4.20
2007,04,15,02,31,4.20
2007,04,15,02,32,4.20
2007,04,15,02,33,4.20
2007,04,15,02,34,4.20
2007,04,15,02,35,4.20
2007,04,15,02,36,4.20
2007,04,15,02,37,4.20
2007,04,15,02,38,4.20
2007,04,15,02,39,4.20
2007,04,15,02,40,4.20
2007,04,15,02,41,4.20
2007,04,15,02,42,4.10
2007,04,15,02,43,4.10
2007,04,15,02,44,4.10
2007,04,15,02,45,4.00
2007,04,15,02,46,4.00
2007,04,15,02,47,4.00
2007,04,15,02,48,4.00
2007,04,15,02,49,3.90
2007,04,15,02,50,3.90
2007,04,15,02,51,3.90
2007,04,15,02,52,3.80
2007,04,15,02,53,3.80
2007,04,15,02,54,3.80
2007,04,15,02,55,3.80
2007,04,15,02,56,3.80
2007,04,15,02,57,3.80
2007,04,15,02,58,3.80
2007,04,15,02,59,3.80
2007,04,15,03,00,3.80
2007,04,15,03,01,3.70
2007,04,15,03,02,3.70
2007,04,15,03,03,3.60
2007,04,15,03,04,3.60
2007,04,15,03,05,3.60
2007,04,15,03,06,3.50
2007,04,15,03,07,3.50
2007,04,15,03,08,3.50
2007,04,15,03,09,3.50
2007,04,15,03,10,3.40
2007,04,15,03,11,3.30
2007,04,15,03,12,3.30
2007,04,15,03,13,3.30
2007,04,15,03,14,3.30
2007,04,15,03,15,3.30
2007,04,15,03,16,3.30
2007,04,15,03,17,3.30
2007,04,15,03,18,3.30
2007,04,15,03,19,3.30
2007,04,15,03,20,3.30
2007,04,15,03,21,3.30
2007,04,15,03,22,3.30
2007,04,15,03,23,3.30
2007,04,15,03,24,3.20
2007,04,15,03,25,3.20
2007,04,15,03,26,3.20
2007,04,15,03,27,3.20
2007,04,15,03,28,3.20
2007,04,15,03,29,3.20
2007,04,15,03,30,3.20
2007,04,15,03,31,3.20
2007,04,15,03,32,3.20
2007,04,15,03,33,3.20
2007,04,15,03,34,3.20
2007,04,15,03,35,3.30
2007,04,15,03,36,3.30
2007,04,15,03,37,3.30
2007,04,15,03,38,3.30
2007,04,15,03,39,3.30
2007,04,15,03,40,3.30
2007,04,15,03,41,3.30
2007,04,15,03,42,3.20
2007,04,15,03,43,3.20
2007,04,15,03,44,3.20
2007,04,15,03,45,3.20
2007,04,15,03,46,3.10
2007,04,15,03,47,3.10
2007,04,15,03,48,3.10
2007,04,15,03,49,3.10
2007,04,15,03,50,3.00
2007,04,15,03,51,2.90
2007,04,15,03,52,2.90
2007,04,15,03,53,2.90
2007,04,15,03,54,2.90
2007,04,15,03,55,2.90
2007,04,15,03,56,2.80
2007,04,15,03,57,2.80
2007,04,15,03,58,2.80
2007,04,15,03,59,2.80
2007,04,15,04,00,2.80
2007,04,15,04,01,2.70
2007,04,15,04,02,2.70
2007,04,15,04,03,2.70
2007,04,15,04,04,2.70
2007,04,15,04,05,2.70
2007,04,15,04,06,2.60
2007,04,15,04,07,2.60
2007,04,15,04,08,2.60
2007,04,15,04,09,2.60
2007,04,15,04,10,2.60
2007,04,15,04,11,2.60
2007,04,15,04,12,2.60
2007,04,15,04,13,2.60
2007,04,15,04,14,2.60
2007,04,15,04,15,2.60
2007,04,15,04,16,2.60
2007,04,15,04,17,2.60
2007,04,15,04,18,2.60
2007,04,15,04,19,2.50
2007,04,15,04,20,2.50
2007,04,15,04,21,2.50
2007,04,15,04,22,2.50
2007,04,15,04,23,2.50
2007,04,15,04,24,2.50
2007,04,15,04,25,2.50
2007,04,15,04,26,2.40
2007,04,15,04,27,2.40
2007,04,15,04,28,2.40
2007,04,15,04,29,2.40
2007,04,15,04,30,2.30
2007,04,15,04,31,2.30
2007,04,15,04,32,2.30
2007,04,15,04,33,2.30
2007,04,15,04,34,2.30
2007,04,15,04,35,2.30
2007,04,15,04,36,2.20
2007,04,15,04,37,2.20
2007,04,15,04,38,2.20
2007,04,15,04,39,2.20
2007,04,15,04,40,2.20
2007,04,15,04,41,2.20
2007,04,15,04,42,2.20
2007,04,15,04,43,2.20
2007,04,15,04,44,2.20
2007,04,15,04,45,2.20
2007,04,15,04,46,2.20
2007,04,15,04,47,2.10
2007,04,15,04,48,2.10
2007,04,15,04,49,2.10
2007,04,15,04,50,2.10
2007,04,15,04,51,2.10
2007,04,15,04,52,2.00
2007,04,15,04,53,2.00
2007,04,15,04,54,2.00
2007,04,15,04,55,2.00
2007,04,15,04,56,2.00
2007,04,15,04,57,2.00
2007,04,15,04,58,1.90
2007,04,15,04,59,1.90
2007,04,15,05,00,1.90
2007,04,15,05,01,1.90
2007,04,15,05,02,1.90
2007,04,15,05,03,1.90
2007,04,15,05,04,1.90
2007,04,15,05,05,1.90
2007,04,15,05,06,1.90
2007,04,15,05,07,1.90
2007,04,15,05,08,1.90
2007,04,15,05,09,1.90
2007,04,15,05,10,1.90
2007,04,15,05,11,1.90
2007,04,15,05,12,1.90
2007,04,15,05,13,1.90
2007,04,15,05,14,1.90
2007,04,15,05,15,1.90
2007,04,15,05,16,1.90
2007,04,15,05,17,1.90
2007,04,15,05,18,1.90
2007,04,15,05,19,1.90
2007,04,15,05,20,1.80
2007,04,15,05,21,1.80
2007,04,15,05,22,1.80
2007,04,15,05,23,1.80
2007,04,15,05,24,1.80
2007,04,15,05,25,1.80
2007,04,15,05,26,1.80
2007,04,15,05,27,1.80
2007,04,15,05,28,1.80
2007,04,15,05,29,1.80
2007,04,15,05,30,1.80
2007,04,15,05,31,1.80
2007,04,15,05,32,1.80
2007,04,15,05,33,1.80
2007,04,15,05,34,1.80
2007,04,15,05,35,1.80
2007,04,15,05,36,1.80
2007,04,15,05,37,1.80
2007,04,15,05,38,1.90
2007,04,15,05,39,1.90
2007,04,15,05,40,2.00
2007,04,15,05,41,2.00
2007,04,15,05,42,2.10
2007,04,15,05,43,2.20
2007,04,15,05,44,2.20
2007,04,15,05,45,2.20
2007,04,15,05,46,2.20
2007,04,15,05,47,2.30
2007,04,15,05,48,2.40
2007,04,15,05,49,2.50
2007,04,15,05,50,2.50
2007,04,15,05,51,2.60
2007,04,15,05,52,2.70
2007,04,15,05,53,2.70
2007,04,15,05,54,2.80
2007,04,15,05,55,2.80
2007,04,15,05,56,2.80
2007,04,15,05,57,2.90
2007,04,15,05,58,2.90
2007,04,15,05,59,2.90
2007,04,15,06,00,2.90
2007,04,15,06,01,2.90
2007,04,15,06,02,2.90
2007,04,15,06,03,2.90
2007,04,15,06,04,2.90
2007,04,15,06,05,2.90
2007,04,15,06,06,2.90
2007,04,15,06,07,3.00
2007,04,15,06,08,3.10
2007,04,15,06,09,3.10
2007,04,15,06,10,3.10
2007,04,15,06,11,3.20
2007,04,15,06,12,3.20
2007,04,15,06,13,3.20
2007,04,15,06,14,3.30
2007,04,15,06,15,3.30
2007,04,15,06,16,3.30
2007,04,15,06,17,3.30
2007,04,15,06,18,3.30
2007,04,15,06,19,3.30
2007,04,15,06,20,3.30
2007,04,15,06,21,3.30
2007,04,15,06,22,3.30
2007,04,15,06,23,3.20
2007,04,15,06,24,3.20
2007,04,15,06,25,3.20
2007,04,15,06,26,3.20
2007,04,15,06,27,3.20
2007,04,15,06,28,3.20
2007,04,15,06,29,3.10
2007,04,15,06,30,3.10
2007,04,15,06,31,3.10
2007,04,15,06,32,3.10
2007,04,15,06,33,3.10
2007,04,15,06,34,3.10
2007,04,15,06,35,3.10
2007,04,15,06,36,3.10
2007,04,15,06,37,3.10
2007,04,15,06,38,3.10
2007,04,15,06,39,3.10
2007,04,15,06,40,3.00
2007,04,15,06,41,2.90
2007,04,15,06,42,2.90
2007,04,15,06,43,2.90
2007,04,15,06,44,2.90
2007,04,15,06,45,2.90
2007,04,15,06,46,2.90
2007,04,15,06,47,2.90
2007,04,15,06,48,2.90
2007,04,15,06,49,2.90
2007,04,15,06,50,2.90
2007,04,15,06,51,2.90
2007,04,15,06,52,2.90
2007,04,15,06,53,2.90
2007,04,15,06,54,2.90
2007,04,15,06,55,2.90
2007,04,15,06,56,2.90
2007,04,15,06,57,2.90
2007,04,15,06,58,2.90
2007,04,15,06,59,3.00
2007,04,15,07,00,3.10
2007,04,15,07,01,3.10
2007,04,15,07,02,3.10
2007,04,15,07,03,3.10
2007,04,15,07,04,3.10
2007,04,15,07,05,3.20
2007,04,15,07,06,3.20
2007,04,15,07,07,3.20
2007,04,15,07,08,3.30
2007,04,15,07,09,3.30
2007,04,15,07,10,3.30
2007,04,15,07,11,3.40
2007,04,15,07,12,3.40
2007,04,15,07,13,3.50
2007,04,15,07,14,3.50
2007,04,15,07,15,3.50
2007,04,15,07,16,3.60
2007,04,15,07,17,3.60
2007,04,15,07,18,3.70
2007,04,15,07,19,3.70
2007,04,15,07,20,3.80
2007,04,15,07,21,3.80
2007,04,15,07,22,3.80
2007,04,15,07,23,3.80
2007,04,15,07,24,3.80
2007,04,15,07,25,3.80
2007,04,15,07,26,3.80
2007,04,15,07,27,3.90
2007,04,15,07,28,3.90
2007,04,15,07,29,3.90
2007,04,15,07,30,3.90
2007,04,15,07,31,3.90
2007,04,15,07,32,3.90
2007,04,15,07,33,3.90
2007,04,15,07,34,4.00
2007,04,15,07,35,4.00
2007,04,15,07,36,4.00
2007,04,15,07,37,4.00
2007,04,15,07,38,4.10
2007,04,15,07,39,4.10
2007,04,15,07,40,4.20
2007,04,15,07,41,4.20
2007,04,15,07,42,4.20
2007,04,15,07,43,4.30
2007,04,15,07,44,4.30
2007,04,15,07,45,4.40
2007,04,15,07,46,4.50
2007,04,15,07,47,4.60
2007,04,15,07,48,4.60
2007,04,15,07,49,4.70
2007,04,15,07,50,4.70
2007,04,15,07,51,4.80
2007,04,15,07,52,4.90
2007,04,15,07,53,4.90
2007,04,15,07,54,5.00
2007,04,15,07,55,5.10
2007,04,15,07,56,5.10
2007,04,15,07,57,5.10
2007,04,15,07,58,5.20
2007,04,15,07,59,5.30
2007,04,15,08,00,5.30
2007,04,15,08,01,5.30
2007,04,15,08,02,5.30
2007,04,15,08,03,5.40
2007,04,15,08,04,5.40
2007,04,15,08,05,5.50
2007,04,15,08,06,5.50
2007,04,15,08,07,5.60
2007,04,15,08,08,5.60
2007,04,15,08,09,5.70
2007,04,15,08,10,5.70
2007,04,15,08,11,5.70
2007,04,15,08,12,5.80
2007,04,15,08,13,5.90
2007,04,15,08,14,5.90
2007,04,15,08,15,6.00
2007,04,15,08,16,6.00
2007,04,15,08,17,6.00
2007,04,15,08,18,6.10
2007,04,15,08,19,6.10
2007,04,15,08,20,6.20
2007,04,15,08,21,6.20
2007,04,15,08,22,6.20
2007,04,15,08,23,6.20
2007,04,15,08,24,6.20
2007,04,15,08,25,6.30
2007,04,15,08,26,6.30
2007,04,15,08,27,6.40
2007,04,15,08,28,6.40
2007,04,15,08,29,6.40
2007,04,15,08,30,6.40
2007,04,15,08,31,6.50
2007,04,15,08,32,6.60
2007,04,15,08,33,6.60
2007,04,15,08,34,6.60
2007,04,15,08,35,6.70
2007,04,15,08,36,6.70
2007,04,15,08,37,6.70
2007,04,15,08,38,6.80
2007,04,15,08,39,6.80
2007,04,15,08,40,6.80
2007,04,15,08,41,6.90
2007,04,15,08,42,6.90
2007,04,15,08,43,7.00
2007,04,15,08,44,7.00
2007,04,15,08,45,7.00
2007,04,15,08,46,7.10
2007,04,15,08,47,7.10
2007,04,15,08,48,7.20
2007,04,15,08,49,7.20
2007,04,15,08,50,7.30
2007,04,15,08,51,7.30
2007,04,15,08,52,7.30
2007,04,15,08,53,7.40
2007,04,15,08,54,7.40
2007,04,15,08,55,7.50
2007,04,15,08,56,7.50
2007,04,15,08,57,7.60
2007,04,15,08,58,7.60
2007,04,15,08,59,7.60
2007,04,15,09,00,7.70
2007,04,15,09,01,7.70
2007,04,15,09,02,7.70
2007,04,15,09,03,7.80
2007,04,15,09,04,7.80
2007,04,15,09,05,7.80
2007,04,15,09,06,7.80
2007,04,15,09,07,7.80
2007,04,15,09,08,7.90
2007,04,15,09,09,7.90
2007,04,15,09,10,7.90
2007,04,15,09,11,7.90
2007,04,15,09,12,7.90
2007,04,15,09,13,7.90
2007,04,15,09,14,7.90
2007,04,15,09,15,8.00
2007,04,15,09,16,8.00
2007,04,15,09,17,8.00
2007,04,15,09,18,8.10
2007,04,15,09,19,8.10
2007,04,15,09,20,8.10
2007,04,15,09,21,8.20
2007,04,15,09,22,8.20
2007,04,15,09,23,8.20
2007,04,15,09,24,8.30
2007,04,15,09,25,8.30
2007,04,15,09,26,8.40
2007,04,15,09,27,8.40
2007,04,15,09,28,8.50
2007,04,15,09,29,8.50
2007,04,15,09,30,8.60
2007,04,15,09,31,8.70
2007,04,15,09,32,8.80
2007,04,15,09,33,8.90
2007,04,15,09,34,8.90
2007,04,15,09,35,9.00
2007,04,15,09,36,9.00
2007,04,15,09,37,9.10
2007,04,15,09,38,9.10
2007,04,15,09,39,9.10
2007,04,15,09,40,9.20
2007,04,15,09,41,9.20
2007,04,15,09,42,9.20
2007,04,15,09,43,9.20
2007,04,15,09,44,9.20
2007,04,15,09,45,9.20
2007,04,15,09,46,9.30
2007,04,15,09,47,9.30
2007,04,15,09,48,9.40
2007,04,15,09,49,9.40
2007,04,15,09,50,9.50
2007,04,15,09,51,9.50
2007,04,15,09,52,9.50
2007,04,15,09,53,9.60
2007,04,15,09,54,9.60
2007,04,15,09,55,9.60
2007,04,15,09,56,9.70
2007,04,15,09,57,9.70
2007,04,15,09,58,9.80
2007,04,15,09,59,9.80
2007,04,15,10,00,9.80
2007,04,15,10,01,9.80
2007,04,15,10,02,9.80
2007,04,15,10,03,9.80
2007,04,15,10,04,9.70
2007,04,15,10,05,9.70
2007,04,15,10,06,9.70
2007,04,15,10,07,9.70
2007,04,15,10,08,9.70
2007,04,15,10,09,9.70
2007,04,15,10,10,9.60
2007,04,15,10,11,9.60
2007,04,15,10,12,9.60
2007,04,15,10,13,9.70
2007,04,15,10,14,9.70
2007,04,15,10,15,9.70
2007,04,15,10,16,9.80
2007,04,15,10,17,9.90
2007,04,15,10,18,10.00
2007,04,15,10,19,10.10
2007,04,15,10,20,10.20
2007,04,15,10,21,10.30
2007,04,15,10,22,10.40
2007,04,15,10,23,10.40
2007,04,15,10,24,10.40
2007,04,15,10,25,10.40
2007,04,15,10,26,10.40
2007,04,15,10,27,10.40
2007,04,15,10,28,10.40
2007,04,15,10,29,10.40
2007,04,15,10,30,10.40
2007,04,15,10,31,10.40
2007,04,15,10,32,10.50
2007,04,15,10,33,10.60
2007,04,15,10,34,10.60
2007,04,15,10,35,10.60
2007,04,15,10,36,10.60
2007,04,15,10,37,10.60
2007,04,15,10,38,10.60
2007,04,15,10,39,10.60
2007,04,15,10,40,10.70
2007,04,15,10,41,10.80
2007,04,15,10,42,10.80
2007,04,15,10,43,10.80
2007,04,15,10,44,10.80
2007,04,15,10,45,10.90
2007,04,15,10,46,10.90
2007,04,15,10,47,10.90
2007,04,15,10,48,10.90
2007,04,15,10,49,10.90
2007,04,15,10,50,10.90
2007,04,15,10,51,10.90
2007,04,15,10,52,10.90
2007,04,15,10,53,10.80
2007,04,15,10,54,10.80
2007,04,15,10,55,10.70
2007,04,15,10,56,10.70
2007,04,15,10,57,10.60
2007,04,15,10,58,10.60
2007,04,15,10,59,10.40
2007,04,15,11,00,10.40
2007,04,15,11,01,10.30
2007,04,15,11,02,10.30
2007,04,15,11,03,10.30
2007,04,15,11,04,10.20
2007,04,15,11,05,10.20
2007,04,15,11,06,10.20
2007,04,15,11,07,10.20
2007,04,15,11,08,10.20
2007,04,15,11,09,10.20
2007,04,15,11,10,10.10
2007,04,15,11,11,10.10
2007,04,15,11,12,10.10
2007,04,15,11,13,10.10
2007,04,15,11,14,10.10
2007,04,15,11,15,10.10
2007,04,15,11,16,10.10
2007,04,15,11,17,10.10
2007,04,15,11,18,10.00
2007,04,15,11,19,9.90
2007,04,15,11,20,9.90
2007,04,15,11,21,9.90
2007,04,15,11,22,9.90
2007,04,15,11,23,9.90
2007,04,15,11,24,9.90
2007,04,15,11,25,9.90
2007,04,15,11,26,9.80
2007,04,15,11,27,9.80
2007,04,15,11,28,9.80
2007,04,15,11,29,9.90
2007,04,15,11,30,9.90
2007,04,15,11,31,9.90
2007,04,15,11,32,10.10
2007,04,15,11,33,10.10
2007,04,15,11,34,10.10
2007,04,15,11,35,10.20
2007,04,15,11,36,10.20
2007,04,15,11,37,10.20
2007,04,15,11,38,10.30
2007,04,15,11,39,10.30
2007,04,15,11,40,10.30
2007,04,15,11,41,10.30
2007,04,15,11,42,10.30
2007,04,15,11,43,10.20
2007,04,15,11,44,10.20
2007,04,15,11,45,10.10
2007,04,15,11,46,10.10
2007,04,15,11,47,10.10
2007,04,15,11,48,10.10
2007,04,15,11,49,10.10
2007,04,15,11,50,10.00
2007,04,15,11,51,9.90
2007,04,15,11,52,9.90
2007,04,15,11,53,10.00
2007,04,15,11,54,10.10
2007,04,15,11,55,10.10
2007,04,15,11,56,10.10
2007,04,15,11,57,10.20
2007,04,15,11,58,10.20
2007,04,15,11,59,10.20
2007,04,15,12,00,10.20
2007,04,15,12,01,10.30
2007,04,15,12,02,10.30
2007,04,15,12,03,10.30
2007,04,15,12,04,10.30
2007,04,15,12,05,10.40
2007,04,15,12,06,10.40
2007,04,15,12,07,10.40
2007,04,15,12,08,10.40
2007,04,15,12,09,10.40
2007,04,15,12,10,10.40
2007,04,15,12,11,10.40
2007,04,15,12,12,10.40
2007,04,15,12,13,10.40
2007,04,15,12,14,10.40
2007,04,15,12,15,10.40
2007,04,15,12,16,10.40
2007,04,15,12,17,10.40
2007,04,15,12,18,10.40
2007,04,15,12,19,10.40
2007,04,15,12,20,10.40
2007,04,15,12,21,10.40
2007,04,15,12,22,10.40
2007,04,15,12,23,10.40
2007,04,15,12,24,10.40
2007,04,15,12,25,10.40
2007,04,15,12,26,10.40
2007,04,15,12,27,10.40
2007,04,15,12,28,10.40
2007,04,15,12,29,10.40
2007,04,15,12,30,10.50
2007,04,15,12,31,10.60
2007,04,15,12,32,10.60
2007,04,15,12,33,10.60
2007,04,15,12,34,10.60
2007,04,15,12,35,10.60
2007,04,15,12,36,10.70
2007,04,15,12,37,10.80
2007,04,15,12,38,10.90
2007,04,15,12,39,11.00
2007,04,15,12,40,11.10
2007,04,15,12,41,11.20
2007,04,15,12,42,11.20
2007,04,15,12,43,11.20
2007,04,15,12,44,11.20
2007,04,15,12,45,11.20
2007,04,15,12,46,11.30
2007,04,15,12,47,11.30
2007,04,15,12,48,11.20
2007,04,15,12,49,11.20
2007,04,15,12,50,11.30
2007,04,15,12,51,11.40
2007,04,15,12,52,11.30
2007,04,15,12,53,11.20
2007,04,15,12,54,11.20
2007,04,15,12,55,11.30
2007,04,15,12,56,11.40
2007,04,15,12,57,11.50
2007,04,15,12,58,11.60
2007,04,15,12,59,11.60
2007,04,15,13,00,11.60
2007,04,15,13,01,11.70
2007,04,15,13,02,11.80
2007,04,15,13,03,11.90
2007,04,15,13,04,11.90
2007,04,15,13,05,11.90
2007,04,15,13,06,11.90
2007,04,15,13,07,11.90
2007,04,15,13,08,11.80
2007,04,15,13,09,11.80
2007,04,15,13,10,11.80
2007,04,15,13,11,11.70
2007,04,15,13,12,11.60
2007,04,15,13,13,11.40
2007,04,15,13,14,11.30
2007,04,15,13,15,11.30
2007,04,15,13,16,11.20
2007,04,15,13,17,11.20
2007,04,15,13,18,11.20
2007,04,15,13,19,11.20
2007,04,15,13,20,11.20
2007,04,15,13,21,11.30
2007,04,15,13,22,11.40
2007,04,15,13,23,11.50
2007,04,15,13,24,11.60
2007,04,15,13,25,11.50
2007,04,15,13,26,11.40
2007,04,15,13,27,11.40
2007,04,15,13,28,11.40
2007,04,15,13,29,11.40
2007,04,15,13,30,11.40
2007,04,15,13,31,11.50
2007,04,15,13,32,11.60
2007,04,15,13,33,11.50
2007,04,15,13,34,11.40
2007,04,15,13,35,11.40
2007,04,15,13,36,11.40
2007,04,15,13,37,11.50
2007,04,15,13,38,11.60
2007,04,15,13,39,11.60
2007,04,15,13,40,11.60
2007,04,15,13,41,11.60
2007,04,15,13,42,11.60
2007,04,15,13,43,11.60
2007,04,15,13,44,11.60
2007,04,15,13,45,11.60
2007,04,15,13,46,11.60
2007,04,15,13,47,11.60
2007,04,15,13,48,11.60
2007,04,15,13,49,11.60
2007,04,15,13,50,11.60
2007,04,15,13,51,11.70
2007,04,15,13,52,11.80
2007,04,15,13,53,11.80
2007,04,15,13,54,11.80
2007,04,15,13,55,11.80
2007,04,15,13,56,11.80
2007,04,15,13,57,11.80
2007,04,15,13,58,11.70
2007,04,15,13,59,11.70
2007,04,15,14,00,11.70
2007,04,15,14,01,11.60
2007,04,15,14,02,11.60
2007,04,15,14,03,11.60
2007,04,15,14,04,11.60
2007,04,15,14,05,11.60
2007,04,15,14,06,11.60
2007,04,15,14,07,11.70
2007,04,15,14,08,11.70
2007,04,15,14,09,11.80
2007,04,15,14,10,11.80
2007,04,15,14,11,11.80
2007,04,15,14,12,11.80
2007,04,15,14,13,11.80
2007,04,15,14,14,11.80
2007,04,15,14,15,11.80
2007,04,15,14,16,11.80
2007,04,15,14,17,11.80
2007,04,15,14,18,11.80
2007,04,15,14,19,11.80
2007,04,15,14,20,11.70
2007,04,15,14,21,11.70
2007,04,15,14,22,11.80
2007,04,15,14,23,11.80
2007,04,15,14,24,11.90
2007,04,15,14,25,11.90
2007,04,15,14,26,12.00
2007,04,15,14,27,12.00
2007,04,15,14,28,12.00
2007,04,15,14,29,12.10
2007,04,15,14,30,12.20
2007,04,15,14,31,12.20
2007,04,15,14,32,12.30
2007,04,15,14,33,12.30
2007,04,15,14,34,12.30
2007,04,15,14,35,12.30
2007,04,15,14,36,12.30
2007,04,15,14,37,12.30
2007,04,15,14,38,12.30
2007,04,15,14,39,12.30
2007,04,15,14,40,12.30
2007,04,15,14,41,12.20
2007,04,15,14,42,12.10
2007,04,15,14,43,12.00
2007,04,15,14,44,11.80
2007,04,15,14,45,11.80
2007,04,15,14,46,11.80
2007,04,15,14,47,11.90
2007,04,15,14,48,12.00
2007,04,15,14,49,12.10
2007,04,15,14,50,12.20
2007,04,15,14,51,12.20
2007,04,15,14,52,12.30
2007,04,15,14,53,12.30
2007,04,15,14,54,12.30
2007,04,15,14,55,12.30
2007,04,15,14,56,12.10
2007,04,15,14,57,12.00
2007,04,15,14,58,12.00
2007,04,15,14,59,12.00
2007,04,15,15,00,12.00
2007,04,15,15,01,12.00
2007,04,15,15,02,11.80
2007,04,15,15,03,11.80
2007,04,15,15,04,11.80
2007,04,15,15,05,11.80
2007,04,15,15,06,11.80
2007,04,15,15,07,11.80
2007,04,15,15,08,11.80
2007,04,15,15,09,11.70
2007,04,15,15,10,11.60
2007,04,15,15,11,11.70
2007,04,15,15,12,11.70
2007,04,15,15,13,11.70
2007,04,15,15,14,11.60
2007,04,15,15,15,11.60
2007,04,15,15,16,11.60
2007,04,15,15,17,11.60
2007,04,15,15,18,11.60
2007,04,15,15,19,11.60
2007,04,15,15,20,11.60
2007,04,15,15,21,11.60
2007,04,15,15,22,11.60
2007,04,15,15,23,11.60
2007,04,15,15,24,11.60
2007,04,15,15,25,11.60
2007,04,15,15,26,11.60
2007,04,15,15,27,11.60
2007,04,15,15,28,11.60
2007,04,15,15,29,11.60
2007,04,15,15,30,11.70
2007,04,15,15,31,11.70
2007,04,15,15,32,11.70
2007,04,15,15,33,11.70
2007,04,15,15,34,11.80
2007,04,15,15,35,11.70
2007,04,15,15,36,11.60
2007,04,15,15,37,11.60
2007,04,15,15,38,11.60
2007,04,15,15,39,11.60
2007,04,15,15,40,11.60
2007,04,15,15,41,11.60
2007,04,15,15,42,11.50
2007,04,15,15,43,11.40
2007,04,15,15,44,11.40
2007,04,15,15,45,11.40
2007,04,15,15,46,11.40
2007,04,15,15,47,11.40
2007,04,15,15,48,11.30
2007,04,15,15,49,11.20
2007,04,15,15,50,11.20
2007,04,15,15,51,11.10
2007,04,15,15,52,11.00
2007,04,15,15,53,10.80
2007,04,15,15,54,10.80
2007,04,15,15,55,10.70
2007,04,15,15,56,10.70
2007,04,15,15,57,10.80
2007,04,15,15,58,10.90
2007,04,15,15,59,10.90
2007,04,15,16,00,10.90
2007,04,15,16,01,11.00
2007,04,15,16,02,11.10
2007,04,15,16,03,11.10
2007,04,15,16,04,11.10
2007,04,15,16,05,11.10
2007,04,15,16,06,11.10
2007,04,15,16,07,11.10
2007,04,15,16,08,11.10
2007,04,15,16,09,11.10
2007,04,15,16,10,11.00
2007,04,15,16,11,10.90
2007,04,15,16,12,11.00
2007,04,15,16,13,10.90
2007,04,15,16,14,10.90
2007,04,15,16,15,10.80
2007,04,15,16,16,10.80
2007,04,15,16,17,10.80
2007,04,15,16,18,10.90
2007,04,15,16,19,10.90
2007,04,15,16,20,10.90
2007,04,15,16,21,10.90
2007,04,15,16,22,10.90
2007,04,15,16,23,11.10
2007,04,15,16,24,11.10
2007,04,15,16,25,11.00
2007,04,15,16,26,10.90
2007,04,15,16,27,10.90
2007,04,15,16,28,10.90
2007,04,15,16,29,10.90
2007,04,15,16,30,10.90
2007,04,15,16,31,10.90
2007,04,15,16,32,11.00
2007,04,15,16,33,11.10
2007,04,15,16,34,11.10
2007,04,15,16,35,11.10
2007,04,15,16,36,11.10
2007,04,15,16,37,11.10
2007,04,15,16,38,11.10
2007,04,15,16,39,11.10
2007,04,15,16,40,11.10
2007,04,15,16,41,11.10
2007,04,15,16,42,11.10
2007,04,15,16,43,11.20
2007,04,15,16,44,11.20
2007,04,15,16,45,11.30
2007,04,15,16,46,11.40
2007,04,15,16,47,11.50
2007,04,15,16,48,11.60
2007,04,15,16,49,11.60
2007,04,15,16,50,11.70
2007,04,15,16,51,11.70
2007,04,15,16,52,11.70
2007,04,15,16,53,11.70
2007,04,15,16,54,11.80
2007,04,15,16,55,11.80
2007,04,15,16,56,11.80
2007,04,15,16,57,11.80
2007,04,15,16,58,11.80
2007,04,15,16,59,11.80
2007,04,15,17,00,11.80
2007,04,15,17,01,11.80
2007,04,15,17,02,11.80
2007,04,15,17,03,11.70
2007,04,15,17,04,11.60
2007,04,15,17,05,11.60
2007,04,15,17,06,11.60
2007,04,15,17,07,11.60
2007,04,15,17,08,11.60
2007,04,15,17,09,11.60
2007,04,15,17,10,11.60
2007,04,15,17,11,11.60
2007,04,15,17,12,11.60
2007,04,15,17,13,11.40
2007,04,15,17,14,11.40
2007,04,15,17,15,11.40
2007,04,15,17,16,11.40
2007,04,15,17,17,11.30
2007,04,15,17,18,11.40
2007,04,15,17,19,11.40
2007,04,15,17,20,11.40
2007,04,15,17,21,11.40
2007,04,15,17,22,11.30
2007,04,15,17,23,11.30
2007,04,15,17,24,11.20
2007,04,15,17,25,11.20
2007,04,15,17,26,11.10
2007,04,15,17,27,11.10
2007,04,15,17,28,11.10
2007,04,15,17,29,11.10
2007,04,15,17,30,11.10
2007,04,15,17,31,11.10
2007,04,15,17,32,11.00
2007,04,15,17,33,10.90
2007,04,15,17,34,10.90
2007,04,15,17,35,10.90
2007,04,15,17,36,10.90
2007,04,15,17,37,10.90
2007,04,15,17,38,10.90
2007,04,15,17,39,10.90
2007,04,15,17,40,10.90
2007,04,15,17,41,10.80
2007,04,15,17,42,10.80
2007,04,15,17,43,10.80
2007,04,15,17,44,10.80
2007,04,15,17,45,10.80
2007,04,15,17,46,10.80